Location: �quirre
(50.4736°N, 2.2351°E)
Time: 10:04:07
(UTC+00:00)

Meteor 1-22 Rocket - Pass Details

Date: 07 August 2020
Orbit: 788 x 940 km, 81.2° (Epoch: 21 September)

Event Time Altitude Azimuth Distance (km) Brightness Sun altitude
Exits shadow 02:27:28 21° 193° (SSW) 1,690 5.2 -15.5°
Maximum altitude 02:31:01 86° 283° (WNW) 798 4.0 -15.1°
Drops below altitude 10° 02:36:22 10° 12° (NNE) 2,376 7.5 -14.6°
Sets 02:38:46 0° 13° (NNE) 3,322 8.5 -14.4°
